TimePST,TemperatureF,Dew PointF,Humidity,Sea Level PressureIn,VisibilityMPH,Wind Direction,Wind SpeedMPH,Gust SpeedMPH,PrecipitationIn,Events,Conditions,WindDirDegrees,DateUTC
12:15 AM,26.6,8.6,47,30.02,10.0,NW,6.9,-,N/A,,Partly Cloudy,320,2013-12-07 08:15:00
12:35 AM,26.6,8.6,47,30.01,10.0,NW,6.9,-,N/A,,Scattered Clouds,320,2013-12-07 08:35:00
12:55 AM,26.6,10.4,51,30.00,10.0,NW,8.1,-,N/A,,Mostly Cloudy,310,2013-12-07 08:55:00
1:15 AM,26.6,10.4,51,29.99,10.0,NW,6.9,-,N/A,,Mostly Cloudy,320,2013-12-07 09:15:00
1:35 AM,28.4,14.0,55,29.99,10.0,NW,6.9,-,N/A,,Clear,320,2013-12-07 09:35:00
1:55 AM,30.2,14.0,51,29.98,10.0,North,12.7,19.6,N/A,,Clear,350,2013-12-07 09:55:00
2:15 AM,28.4,12.2,51,29.97,10.0,WNW,5.8,-,N/A,,Clear,300,2013-12-07 10:15:00
2:35 AM,26.6,12.2,55,29.96,10.0,North,3.5,-,N/A,,Clear,360,2013-12-07 10:35:00
2:55 AM,26.6,12.2,55,29.95,10.0,West,3.5,-,N/A,,Scattered Clouds,270,2013-12-07 10:55:00
3:15 AM,26.6,15.8,64,29.95,10.0,West,5.8,-,N/A,,Partly Cloudy,270,2013-12-07 11:15:00
3:35 AM,26.6,15.8,64,29.94,10.0,West,8.1,-,N/A,,Mostly Cloudy,280,2013-12-07 11:35:00
3:55 AM,32.0,15.8,51,29.93,10.0,NW,11.5,17.3,N/A,,Overcast,310,2013-12-07 11:55:00
4:15 AM,32.0,17.6,55,29.93,10.0,West,12.7,19.6,N/A,,Overcast,280,2013-12-07 12:15:00
4:35 AM,32.0,19.4,60,29.92,10.0,NW,10.4,-,N/A,,Overcast,320,2013-12-07 12:35:00
4:55 AM,32.0,23.0,69,29.91,10.0,WNW,11.5,-,N/A,,Overcast,290,2013-12-07 12:55:00
5:15 AM,32.0,24.8,75,29.90,10.0,West,12.7,-,N/A,,Overcast,280,2013-12-07 13:15:00
5:35 AM,33.8,24.8,70,29.90,10.0,West,13.8,18.4,N/A,,Overcast,270,2013-12-07 13:35:00
5:55 AM,35.6,24.8,65,29.88,10.0,West,18.4,26.5,N/A,,Overcast,270,2013-12-07 13:55:00
6:15 AM,37.4,26.6,65,29.89,5.0,WNW,13.8,27.6,N/A,Rain,Light Rain,290,2013-12-07 14:15:00
6:35 AM,35.6,28.4,75,29.88,2.0,West,18.4,27.6,0.03,Rain,Rain,280,2013-12-07 14:35:00
6:55 AM,33.8,30.2,87,29.88,4.0,West,15.0,25.3,0.10,Rain,Light Rain,260,2013-12-07 14:55:00
7:15 AM,35.6,28.4,75,29.87,4.0,West,18.4,26.5,N/A,Rain,Light Rain,270,2013-12-07 15:15:00
7:35 AM,35.6,32.0,87,29.88,0.8,West,20.7,32.2,0.05,,Overcast,260,2013-12-07 15:35:00
7:55 AM,33.8,32.0,93,29.89,0.8,West,16.1,23.0,0.17,,Overcast,270,2013-12-07 15:55:00
8:15 AM,33.8,32.0,93,29.89,0.8,WSW,13.8,25.3,0.08,Rain,Light Rain,250,2013-12-07 16:15:00
8:35 AM,32.0,32.0,100,29.90,0.8,WNW,9.2,25.3,0.22,,Overcast,300,2013-12-07 16:35:00
8:55 AM,32.0,32.0,100,29.91,0.2,NW,13.8,18.4,0.66,Snow,Heavy Snow,310,2013-12-07 16:55:00
9:15 AM,32.0,32.0,100,29.93,0.2,WNW,25.3,36.8,0.31,Snow,Heavy Snow,300,2013-12-07 17:15:00
9:35 AM,30.2,30.2,100,29.95,0.2,NW,21.9,32.2,1.34,Snow,Heavy Snow,310,2013-12-07 17:35:00
9:55 AM,30.2,30.2,100,29.98,0.2,West,16.1,29.9,2.58,Snow,Heavy Snow,280,2013-12-07 17:55:00
10:15 AM,30.2,30.2,100,29.98,0.2,WNW,24.2,40.3,0.73,Snow,Heavy Snow,300,2013-12-07 18:15:00
10:35 AM,32.0,28.4,87,29.99,0.5,WNW,21.9,29.9,0.95,,Mostly Cloudy,300,2013-12-07 18:35:00
10:55 AM,32.0,30.2,93,29.98,0.8,NW,20.7,26.5,1.00,Rain,Light Rain,310,2013-12-07 18:55:00
11:15 AM,32.0,28.4,87,29.98,1.0,WNW,21.9,31.1,0.07,Rain,Rain,300,2013-12-07 19:15:00
11:35 AM,32.0,30.2,93,29.97,0.8,WNW,21.9,26.5,0.13,Rain,Light Freezing Rain,300,2013-12-07 19:35:00
11:55 AM,30.2,30.2,100,29.96,0.8,NW,25.3,32.2,0.20,Rain,Light Freezing Rain,310,2013-12-07 19:55:00
12:15 PM,30.2,30.2,100,29.95,2.0,NW,24.2,33.4,0.01,Rain,Light Freezing Rain,310,2013-12-07 20:15:00
12:35 PM,30.2,28.4,93,29.95,4.0,WNW,25.3,33.4,0.01,,Overcast,300,2013-12-07 20:35:00
12:55 PM,30.2,30.2,100,29.95,3.0,NW,25.3,33.4,0.01,,Mostly Cloudy,310,2013-12-07 20:55:00
1:15 PM,30.2,28.4,93,29.94,3.0,WNW,21.9,34.5,N/A,,Mostly Cloudy,300,2013-12-07 21:15:00
1:35 PM,30.2,28.4,93,29.94,5.0,NW,25.3,33.4,N/A,,Overcast,310,2013-12-07 21:35:00
1:55 PM,30.2,28.4,93,29.94,5.0,NW,26.5,34.5,N/A,,Overcast,310,2013-12-07 21:55:00
2:15 PM,32.0,28.4,87,29.94,9.0,WNW,24.2,32.2,N/A,,Overcast,300,2013-12-07 22:15:00
2:35 PM,32.0,28.4,87,29.94,7.0,NW,24.2,31.1,N/A,,Mostly Cloudy,310,2013-12-07 22:35:00
2:55 PM,32.0,26.6,80,29.94,7.0,NW,25.3,36.8,N/A,,Overcast,310,2013-12-07 22:55:00
3:15 PM,30.2,28.4,93,29.94,7.0,WNW,27.6,34.5,N/A,,Overcast,300,2013-12-07 23:15:00
3:35 PM,28.4,24.8,86,29.94,8.0,WNW,28.8,34.5,N/A,,Overcast,300,2013-12-07 23:35:00
3:55 PM,28.4,21.2,74,29.94,8.0,WNW,27.6,33.4,N/A,,Overcast,290,2013-12-07 23:55:00
4:15 PM,28.4,23.0,80,29.94,5.0,WNW,27.6,39.1,N/A,,Haze,300,2013-12-08 00:15:00
4:35 PM,28.4,23.0,80,29.95,5.0,WNW,26.5,40.3,N/A,,Haze,300,2013-12-08 00:35:00
4:55 PM,28.4,23.0,80,29.95,3.0,WNW,33.4,41.4,N/A,,Haze,300,2013-12-08 00:55:00
5:15 PM,28.4,21.2,74,29.95,5.0,WNW,35.7,41.4,N/A,,Haze,290,2013-12-08 01:15:00
5:35 PM,28.4,19.4,69,29.96,3.0,WNW,36.8,44.9,N/A,Rain,Freezing Rain,300,2013-12-08 01:35:00
5:55 PM,28.4,19.4,69,29.97,3.0,WNW,33.4,44.9,N/A,Rain,Freezing Rain,300,2013-12-08 01:55:00
6:15 PM,28.4,19.4,69,29.98,5.0,NW,33.4,41.4,N/A,Rain,Freezing Rain,310,2013-12-08 02:15:00
6:35 PM,28.4,19.4,69,29.98,4.0,WNW,35.7,44.9,N/A,Rain,Freezing Rain,300,2013-12-08 02:35:00
6:55 PM,26.6,17.6,69,29.98,5.0,WNW,35.7,42.6,N/A,,Haze,290,2013-12-08 02:55:00
7:15 PM,26.6,19.4,74,29.99,7.0,WNW,31.1,41.4,N/A,,Overcast,300,2013-12-08 03:15:00
7:35 PM,26.6,17.6,69,29.99,9.0,WNW,31.1,38.0,N/A,,Overcast,300,2013-12-08 03:35:00
7:55 PM,26.6,17.6,69,30.00,8.0,WNW,31.1,40.3,N/A,,Overcast,300,2013-12-08 03:55:00
8:15 PM,26.6,17.6,69,30.00,10.0,WNW,31.1,39.1,N/A,,Overcast,300,2013-12-08 04:15:00
8:35 PM,26.6,17.6,69,30.00,10.0,WNW,28.8,34.5,N/A,,Overcast,300,2013-12-08 04:35:00
8:55 PM,26.6,17.6,69,30.01,10.0,WNW,19.6,29.9,N/A,,Overcast,300,2013-12-08 04:55:00
9:15 PM,26.6,17.6,69,30.02,10.0,WNW,16.1,-,N/A,,Overcast,290,2013-12-08 05:15:00
9:35 PM,26.6,17.6,69,30.03,10.0,West,15.0,21.9,N/A,,Overcast,280,2013-12-08 05:35:00
9:55 PM,28.4,17.6,64,30.04,10.0,West,16.1,25.3,N/A,,Overcast,280,2013-12-08 05:55:00
10:15 PM,26.6,17.6,69,30.04,10.0,West,19.6,28.8,N/A,,Overcast,270,2013-12-08 06:15:00
10:35 PM,26.6,17.6,69,30.04,10.0,West,19.6,-,N/A,,Overcast,270,2013-12-08 06:35:00
10:55 PM,26.6,15.8,64,30.05,10.0,West,18.4,31.1,N/A,,Overcast,280,2013-12-08 06:55:00
11:15 PM,26.6,15.8,64,30.05,10.0,WNW,18.4,24.2,N/A,,Overcast,290,2013-12-08 07:15:00
11:35 PM,26.6,15.8,64,30.04,10.0,WNW,19.6,25.3,N/A,,Mostly Cloudy,290,2013-12-08 07:35:00
11:55 PM,24.8,15.8,69,30.05,10.0,West,17.3,25.3,N/A,,Scattered Clouds,280,2013-12-08 07:55:00